Weather History for Warrensburg, MO

Change the Weather History Date:

Monday, May 6, 2013

  Actual Average (KSZL) Record (KSZL)
Temperature  
Mean Temperature 59 °F -  
Max Temperature 68 °F 71 °F 84 °F (2004)
Min Temperature 50 °F 51 °F 39 °F (2011)
Degree Days  
Heating Degree Days 6    
Growing Degree Days 9 (Base 50)    
Moisture  
Dew Point 49 °F    
Average Humidity 78    
Maximum Humidity 94    
Minimum Humidity 52    
Precipitation  
Precipitation 0.00 in - - ()
Sea Level Pressure  
Sea Level Pressure 30.06 in    
Wind  
Wind Speed 7 mph (NW)    
Max Wind Speed 12 mph    
Max Gust Speed -    
Visibility 9 miles    
Events      
Averages and records for this station are not official NWS values.
T = Trace of Precipitation, MM = Missing Value Source: NWS Daily Summary

Daily Weather History Graph

Daily Weather History Graph

Search for Another Location

Airport:

Trip Planner

Search our weather history database for the weather conditions in past years. The results will help you decide how hot, cold, wet, or windy it might be!

Date:

Astronomy

May. 06, 2013 Rise Set
Actual Time 6:11 AM CDT 8:12 PM CDT
Civil Twilight 5:42 AM CDT 8:41 PM CDT
Nautical Twilight 5:06 AM CDT 9:17 PM CDT
Astronomical Twilight 4:28 AM CDT 9:56 PM CDT
Moon 4:12 AM CDT (5/6) 5:14 PM CDT (5/6)
Length of Visible Light 14h 59m
Length of Day
14h 01m
Waning Crescent, 11% of the Moon is Illuminated
May 6
Waning Crescent
May 9
New
May 17
First Quarter
May 24
Full
May 31
Last Quarter

Hourly Weather History & Observations

Time (CDT) Temp. Dew Point Humidity Pressure Visibility Wind Dir Wind Speed Gust Speed Precip Events Conditions
12:15 AM 51.8 °F 48.2 °F 88% 30.05 in 10.0 mi WNW 8.1 mph - N/A   Overcast
12:35 AM 51.8 °F 46.4 °F 82% 30.04 in 10.0 mi WNW 9.2 mph - N/A   Scattered Clouds
12:55 AM 51.8 °F 46.4 °F 82% 30.04 in 10.0 mi NW 8.1 mph - N/A   Scattered Clouds
1:15 AM 51.8 °F 46.4 °F 82% 30.04 in 10.0 mi WNW 4.6 mph - N/A   Scattered Clouds
1:35 AM 51.8 °F 46.4 °F 82% 30.05 in 10.0 mi NNW 3.5 mph - N/A   Mostly Cloudy
1:55 AM 51.8 °F 46.4 °F 82% 30.04 in 10.0 mi WNW 5.8 mph - N/A   Overcast
2:15 AM 51.8 °F 46.4 °F 82% 30.05 in 10.0 mi NNW 6.9 mph - N/A   Overcast
2:35 AM 51.8 °F 46.4 °F 82% 30.05 in 10.0 mi NW 8.1 mph - N/A   Overcast
2:55 AM 51.8 °F 46.4 °F 82% 30.04 in 10.0 mi NW 5.8 mph - N/A   Overcast
3:15 AM 51.8 °F 46.4 °F 82% 30.04 in 10.0 mi NW 9.2 mph - N/A   Overcast
3:35 AM 51.8 °F 46.4 °F 82% 30.03 in 10.0 mi NW 9.2 mph - N/A   Overcast
3:55 AM 51.8 °F 46.4 °F 82% 30.03 in 10.0 mi WNW 8.1 mph - N/A   Overcast
4:15 AM 51.8 °F 46.4 °F 82% 30.04 in 10.0 mi NW 8.1 mph - N/A   Overcast
4:35 AM 51.8 °F 48.2 °F 88% 30.04 in 10.0 mi NW 10.4 mph - N/A   Overcast
4:55 AM 50.0 °F 48.2 °F 94% 30.04 in 7.0 mi NW 9.2 mph - N/A   Overcast
5:15 AM 50.0 °F 48.2 °F 94% 30.05 in 5.0 mi NW 5.8 mph - N/A   Overcast
5:55 AM 50.0 °F 48.2 °F 94% 30.05 in 4.0 mi NW 8.1 mph - N/A   Overcast
6:15 AM 50.0 °F 48.2 °F 94% 30.06 in 5.0 mi NNW 8.1 mph - N/A   Overcast
6:35 AM 50.0 °F 48.2 °F 94% 30.06 in 5.0 mi NNW 6.9 mph - N/A   Overcast
6:55 AM 50.0 °F 48.2 °F 94% 30.07 in 5.0 mi NNW 10.4 mph - N/A   Overcast
7:35 AM 50.0 °F 46.4 °F 87% 30.08 in 7.0 mi NNW 11.5 mph - N/A   Overcast
7:55 AM 50.0 °F 48.2 °F 94% 30.08 in 7.0 mi North 8.1 mph - N/A   Overcast
8:15 AM 50.0 °F 48.2 °F 94% 30.09 in 7.0 mi NNW 8.1 mph - N/A   Overcast
8:35 AM 50.0 °F 48.2 °F 94% 30.09 in 7.0 mi NNW 9.2 mph - N/A   Overcast
8:55 AM 50.0 °F 48.2 °F 94% 30.10 in 7.0 mi NNW 8.1 mph - N/A   Overcast
9:15 AM 50.0 °F 48.2 °F 94% 30.10 in 7.0 mi NNW 9.2 mph - N/A   Overcast
9:35 AM 51.8 °F 48.2 °F 88% 30.10 in 10.0 mi North 5.8 mph - N/A   Overcast
9:55 AM 51.8 °F 48.2 °F 88% 30.10 in 10.0 mi North 8.1 mph - N/A   Overcast
10:15 AM 51.8 °F 50.0 °F 94% 30.10 in 10.0 mi NNW 6.9 mph - N/A   Overcast
10:35 AM 51.8 °F 50.0 °F 94% 30.10 in 10.0 mi NW 6.9 mph - N/A   Overcast
10:55 AM 51.8 °F 50.0 °F 94% 30.10 in 10.0 mi NNW 4.6 mph - N/A   Overcast
11:15 AM 53.6 °F 50.0 °F 88% 30.10 in 10.0 mi NW 5.8 mph - N/A   Overcast
11:35 AM 53.6 °F 50.0 °F 88% 30.10 in 10.0 mi NW 5.8 mph - N/A   Overcast
11:55 AM 53.6 °F 50.0 °F 88% 30.10 in 10.0 mi NW 6.9 mph - N/A   Overcast
12:15 PM 55.4 °F 50.0 °F 82% 30.09 in 10.0 mi NW 5.8 mph - N/A   Overcast
12:35 PM 55.4 °F 50.0 °F 82% 30.09 in 10.0 mi NNW 6.9 mph - N/A   Overcast
12:55 PM 59.0 °F 51.8 °F 77% 30.08 in 10.0 mi West 5.8 mph - N/A   Overcast
1:15 PM 59.0 °F 51.8 °F 77% 30.08 in 10.0 mi WNW 4.6 mph - N/A   Mostly Cloudy
1:35 PM 59.0 °F 51.8 °F 77% 30.07 in 10.0 mi West 4.6 mph - N/A   Scattered Clouds
1:55 PM 60.8 °F 51.8 °F 72% 30.07 in 10.0 mi WNW 5.8 mph - N/A   Clear
2:15 PM 60.8 °F 51.8 °F 72% 30.07 in 10.0 mi West 3.5 mph - N/A   Clear
2:35 PM 60.8 °F 51.8 °F 72% 30.06 in 10.0 mi WNW 3.5 mph - N/A   Clear
2:55 PM 64.4 °F 53.6 °F 68% 30.06 in 10.0 mi WNW 5.8 mph - N/A   Clear
3:15 PM 64.4 °F 53.6 °F 68% 30.05 in 10.0 mi WNW 4.6 mph - N/A   Clear
3:35 PM 66.2 °F 53.6 °F 64% 30.04 in 10.0 mi West 5.8 mph - N/A   Clear
3:55 PM 68.0 °F 53.6 °F 60% 30.03 in 10.0 mi Calm Calm - N/A   Clear
4:15 PM 68.0 °F 53.6 °F 60% 30.03 in 10.0 mi WNW 3.5 mph - N/A   Clear
4:35 PM 68.0 °F 51.8 °F 56% 30.02 in 10.0 mi NNW 6.9 mph - N/A   Clear
4:55 PM 68.0 °F 51.8 °F 56% 30.02 in 10.0 mi Calm Calm - N/A   Clear
5:15 PM 68.0 °F 51.8 °F 56% 30.02 in 10.0 mi NW 5.8 mph - N/A   Clear
5:55 PM 68.0 °F 51.8 °F 56% 30.02 in 10.0 mi North 3.5 mph - N/A   Clear
6:15 PM 68.0 °F 50.0 °F 52% 30.02 in 10.0 mi NNW 4.6 mph - N/A   Clear
6:35 PM 68.0 °F 50.0 °F 52% 30.02 in 10.0 mi NW 4.6 mph - N/A   Clear
6:55 PM 68.0 °F 51.8 °F 56% 30.02 in 10.0 mi NW 4.6 mph - N/A   Clear
7:15 PM 66.2 °F 50.0 °F 56% 30.02 in 10.0 mi WNW 4.6 mph - N/A   Clear
8:15 PM 62.6 °F 50.0 °F 63% 30.02 in 10.0 mi Calm Calm - N/A   Clear
8:35 PM 62.6 °F 50.0 °F 63% 30.03 in 10.0 mi West 3.5 mph - N/A   Clear
8:55 PM 60.8 °F 50.0 °F 68% 30.03 in 10.0 mi West 3.5 mph - N/A   Clear
9:15 PM 60.8 °F 50.0 °F 68% 30.04 in 10.0 mi West 3.5 mph - N/A   Clear
9:35 PM 60.8 °F 48.2 °F 63% 30.05 in 10.0 mi West 3.5 mph - N/A   Clear
9:55 PM 59.0 °F 48.2 °F 67% 30.05 in 10.0 mi West 4.6 mph - N/A   Clear
10:15 PM 59.0 °F 48.2 °F 67% 30.06 in 10.0 mi West 3.5 mph - N/A   Clear
10:35 PM 59.0 °F 50.0 °F 72% 30.07 in 10.0 mi Calm Calm - N/A   Clear
10:55 PM 57.2 °F 48.2 °F 72% 30.07 in 10.0 mi West 3.5 mph - N/A   Clear
11:15 PM 57.2 °F 48.2 °F 72% 30.07 in 10.0 mi West 3.5 mph - N/A   Clear
11:35 PM 55.4 °F 50.0 °F 82% 30.07 in 10.0 mi Calm Calm - N/A   Clear
11:55 PM 55.4 °F 50.0 °F 82% 30.07 in 10.0 mi WNW 3.5 mph - N/A   Clear